Regional Weather Roundup
Issued by NWS

Home | Current Version | Previous Version | Text Only | Print | Product List | Glossary Off
Versions: 1 2 3 4 5 6 7 8 9 10 11 12 13 14 15 16 17 18 19 20 21 22 23 24 25 26 27 28 29 30 31 32 33 34 35 36 37 38 39 40 41 42 43 44 45 46 47 48 49 50

000
ASUS43 KLSX 251907
RWRMO

WEATHER SUMMARY FOR MISSOURI
NATIONAL WEATHER SERVICE SPRINGFIELD MO
200 PM CDT FRI MAY 25 2018

NOTE: "FAIR" INDICATES FEW OR NO CLOUDS BELOW 12,000 FEET WITH NO
       SIGNIFICANT WEATHER AND/OR OBSTRUCTIONS TO VISIBILITY.
       CURRENT SKY AND/OR WEATHER CONDITIONS ARE NOT AVAILABLE FOR
       CHILLICOTHE AND FARMINGTON.

MOZ001>031-035>038-043-044-053-054-252000-
...NORTHERN AND WESTERN MISSOURI...

CITY           SKY/WX    TMP DP  RH WIND       PRES   REMARKS
KANSAS CTY INT CLOUDY    78  67  68 S8        29.88F
KANSAS C DTWN  CLOUDY    80  66  62 SW8       29.87F
LEE`S SUMMIT   CLOUDY    78  68  71 SW9       29.89F
ST JOSEPH      MOSUNNY   86  64  47 S8        29.85F
CHILLICOTHE      N/A     80  68  66 SW5       29.88F
KIRKSVILLE     PTSUNNY   80  65  59 SW12G21   29.88F

$$
MOZ066>068-077>081-088>096-101>105-252000-
...SOUTHWEST MISSOURI...

CITY           SKY/WX    TMP DP  RH WIND       PRES   REMARKS
SPRINGFIELD    CLOUDY    83  69  62 SW14G20   29.88F
JOPLIN         MOSUNNY   83  69  62 SW8G21    29.89F
BRANSON        PTSUNNY   84  70  61 SW3       29.92F

$$
MOZ032>034-039>042-045>050-055>058-069>072-252000-
...CENTRAL MISSOURI...

CITY           SKY/WX    TMP DP  RH WIND       PRES   REMARKS
COLUMBIA       CLOUDY    75  68  78 VRB5      29.89F
JEFFERSON CITY CLOUDY    76  67  73 CALM      29.88F
ROLLA          CLOUDY    81  68  64 S8        29.90F
SEDALIA        MOSUNNY   79  69  71 SW10      29.89F
WHITEMAN AFB   PTSUNNY   78  70  75 W5        29.84F
WARRENSBURG    CLOUDY    79  68  69 SW8       29.88
OSAGE BEACH    MOSUNNY   79  71  76 VRB6      29.89F

$$
MOZ051-052-059>065-252000-
...EAST CENTRAL MISSOURI...

CITY           SKY/WX    TMP DP  RH WIND       PRES   REMARKS
ST LOUIS INTL  CLOUDY    86  68  54 S10G17    29.86F
SPIRIT OF STL  CLOUDY    81  70  69 SW12G18   29.87F
ST CHARLES     CLOUDY    85  67  54 S12       29.84F

$$
MOZ072>076-082>087-097>100-106>115-252000-
...SOUTH CENTRAL AND SOUTHEAST MISSOURI...

CITY           SKY/WX    TMP DP  RH WIND       PRES   REMARKS
CAPE GIRARDEAU FAIR      87  70  56 S5        29.88F HX  92
FARMINGTON     CLOUDY    76  65  68 SW6       29.92F
POPLAR BLUFF   LGT RAIN  73  69  87 SW3       29.92R
WEST PLAINS    TSTM      77  70  79 SW15G29   29.95F VSB 1

$$




USA.gov is the U.S. government's official web portal to all federal, state and local government web resources and services.